Volver al catálogo

STARLINK-34215

ActivoComunicacionesVLEO
NORAD 64252·PAYLOAD·🇺🇸 United States

Lanzado Jun 3, 2025 desde Cape Canaveral Space Force Station

Loading…

Próximos Pases (próximas 24 horas)

TLE

ActualizadoSource: CelesTrak SupGP

Época: Sep 15, 2026, 02:45 UTC

1 64252C 25119V   26258.11506944  .00035694  00000+0  12926-2 0  2586
2 64252  43.0019 317.2715 0001412 260.9870 310.8963 15.27566246    19

Sigue STARLINK-34215 en tiempo real con AllMySat

Download on the App Store